Location: Newark
(23.3970°S, 47.6010°W)
Time: 18:24:53
(UTC+00:00)

deb Explorer IX - Pass Details

Date: 27 February 2020
Orbit: 547 x 1100 km, 38.8° (Epoch: 02 April)

Event Time Altitude Azimuth Distance (km) Brightness Sun altitude
Rises 04:52:19 0° 234° (SW) 3,889 - -51.3°
Reaches altitude 10° 04:55:08 10° 230° (SW) 2,955 - -51.0°
Maximum altitude 05:02:22 58° 152° (SSE) 1,265 - -49.9°
Drops below altitude 10° 05:09:20 10° 73° (ENE) 2,850 - -48.9°
Sets 05:11:59 0° 69° (ENE) 3,743 - -48.5°
